Showing default

QIANFAN-91, 66033

Orbit data source: Space-Track

QIANFAN-91, 66033 is a Chinese payload satellite in LEO that was launched on Fri, 17 Oct 2025 UTC via a CHANG ZHENG 6A launch vehicle from the Taiyaun Space Center, China (TSC). Payload-class satellites include a variety of spacecraft equipped with specific instruments for various scientific and technological missions. These include communications satellites like Starlink; space stations such as the ISS; scientific satellites like the Hubble; Earth observation satellites from companies like Planet Labs, Umbra, and HawkEye 360; GPS; miniature CubeSats for education and research; and military/defense satellites.

Loading next visibility...
Identifier
66033, 2025-233A
Orbit
LEO
Country
Flag of CNCN / PRC
Related business
Manufacturer
SECM
Mission
Operational Commercial Communications
Bus & Motor
QIANFAN, Unknown motor
Mass
267 kg wet, ~267 kg dry
Launch date (UTC)
2025-10-17 (7 months ago)
Launch vehicle
CHANG ZHENG 6A
Launch site
Taiyaun Space Center, China (TSC)
Object type
Payload
Rocket body
Debris
Shape & HBR
Box + 1 Pan, 14.5 m
Radar Cross Section
13.200 m²

Expand to show TLE details & history
Last TLE update: 6 hours ago

TLE from 6 hours ago
0 QIANFAN-91
1 66033U 25233A   26130.21309578  .00000130  00000-0  18239-3 0  9990
2 66033  89.0020  47.0234 0002389  69.9854 290.1554 13.51016719 28057
Epoch: 2026-05-10T05:06Z
TLE epoch observation values (Epoch: 2026-05-10T05:06:51.475Z)
Latitude
-0.00004°
Longitude
102.28951°
Altitude
1,070.861 km
Speed
7.317 km/s
True Right ascension
03h 08m 05s
True Declination
0° 00' 00"
Sunlit
Object was in daylight at epoch
Visualization orbit readout
Latitude
Unknown
Longitude
Unknown
Altitude
Unknown
Speed
Unknown
Apparent Right ascension
Unknown
Apparent Declination
Unknown
Sunlit
N/A
Visualization observer readout
Local Sidereal Time
19:44:26
Azimuth
Unknown
Elevation
Unknown
Doppler factor
Unknown
Orbital elements
Apogee altitude
1,067.349 km
Perigee altitude
1,063.793 km
Semi-major axis
7,443.708 km
Eccentricity
0.00024
Inclination
89.002°
RAAN
47.0234°
Arg. of periapsis
69.9854°
True anomaly
290.1297°
Mean anomaly
290.1554°
Eccentric anomaly
290.14255°
Mean motion
3.37955 °/min
Orbital period
106.52 mins
BSTAR
0.00018239
Loading maneuver chart data...
Computing Atmospheric mass density...
Loading historical data...
Loading historical data...
Loading historical data...
Loading historical data...
Loading historical data...
Loading historical data...
Loading historical data...

Documentation

Showing up to 5 results
|